Theta_e
331 326 328 327 315 315 306 306 311 310 311 316 317 316 315 319 313 309 337 340 341 343 346 348 348 348 345 343 341 339 340 340 342 342 340 340 338 336 335 335 336 334 333 333 336 335 335 338 339
326 323 328 323 311 305 305 310 308 312 318 320 319 319 317 314 326 329 334 340 342 344 346 347 345 347 344 342 340 340 339 339 339 339 341 339 337 336 333 333 333 333 334 334 334 334 334 338 340
324 323 322 316 311 305 306 311 312 315 319 316 317 323 320 318 327 331 338 341 343 344 346 346 343 345 343 341 339 339 337 337 339 341 341 338 337 335 335 333 332 331 332 332 332 332 333 335 340
323 325 320 312 306 307 309 313 314 314 317 318 318 314 323 331 329 334 339 342 341 343 345 342 344 344 342 340 339 339 337 336 338 339 338 339 338 335 335 333 332 331 331 330 330 331 332 333 336
325 322 313 308 305 307 312 315 316 313 315 317 318 314 318 330 335 337 340 341 340 343 345 345 343 344 342 340 338 338 337 335 334 335 338 341 339 336 335 333 332 330 329 329 329 331 330 331 333
321 318 310 306 306 308 312 317 316 314 315 316 316 316 318 332 333 337 341 341 342 342 345 344 337 339 341 341 341 339 339 337 337 337 337 340 339 337 335 334 332 329 330 329 329 328 328 329 329
316 314 307 306 305 307 309 317 315 315 315 315 319 313 320 328 334 339 340 341 341 341 343 344 343 338 334 337 337 338 338 336 337 338 338 341 339 339 337 337 334 332 332 331 330 327 327 328 327
316 316 306 307 306 306 311 314 314 315 315 320 323 313 315 328 335 339 340 340 339 338 342 343 342 340 339 338 331 333 334 335 335 335 333 332 335 334 334 331 333 333 333 332 331 329 327 327 326
314 312 307 306 305 307 310 311 314 318 317 318 320 320 324 331 335 335 335 335 335 334 336 342 341 340 339 338 333 329 330 332 331 331 328 327 333 333 331 328 331 334 335 334 332 330 329 328 325
314 310 308 310 310 308 309 311 311 313 315 316 318 324 328 330 333 331 330 331 332 333 334 337 340 340 339 336 336 334 333 335 335 334 333 332 332 332 329 325 324 327 328 333 333 331 330 327 326
310 307 310 308 308 308 308 308 310 311 310 313 313 317 324 327 330 331 331 333 333 336 336 335 336 339 340 339 337 336 335 334 335 335 334 332 331 332 331 330 330 330 324 332 331 331 330 328 328
307 308 308 309 308 308 308 309 309 310 311 313 316 313 318 321 325 328 330 332 333 334 336 337 337 335 337 339 338 338 336 335 334 334 334 332 331 330 330 329 330 330 330 329 330 329 329 330 327
309 309 309 309 310 310 309 309 310 310 314 314 313 313 316 318 321 326 330 332 333 333 335 337 338 335 334 335 339 338 337 336 335 334 334 332 331 330 329 328 328 329 329 328 328 327 327 328 327
310 309 309 310 310 310 308 310 309 311 312 312 312 314 313 313 315 320 324 327 329 332 333 336 338 338 336 334 335 337 337 337 337 336 335 333 332 331 329 328 327 327 328 328 327 327 326 326 326
309 306 308 309 310 309 309 306 306 313 312 312 313 314 313 314 316 317 319 321 324 327 330 332 335 337 338 336 335 335 336 334 335 336 336 335 333 331 330 329 328 327 328 327 327 326 326 325 325
306 306 300 306 308 309 308 300 308 312 311 311 312 313 313 315 317 319 320 320 321 323 324 328 331 333 336 337 338 337 336 334 333 333 337 336 334 333 331 330 329 329 328 327 325 325 324 324 324
303 295 298 300 306 306 306 301 307 310 309 310 312 313 313 314 317 318 320 320 320 320 320 323 328 331 333 336 337 338 337 334 333 332 334 336 335 333 332 331 330 330 329 327 326 324 324 323 324
294 296 298 298 302 304 303 303 307 310 309 309 311 312 312 313 314 317 318 319 318 319 319 321 324 328 331 333 335 336 335 335 333 332 332 335 335 334 333 332 331 331 329 328 327 324 325 324 324
299 297 296 299 302 301 300 301 303 307 308 308 309 310 311 312 315 316 316 317 317 317 317 318 320 324 328 330 330 332 329 329 330 331 332 333 334 334 333 332 331 330 328 328 327 326 324 323 324
299 297 296 300 302 301 301 300 304 306 306 308 308 309 310 310 311 312 313 312 312 313 314 316 317 320 324 328 330 331 332 333 333 332 331 331 332 332 332 331 331 330 327 327 327 324 322 322 324
298 297 296 296 300 302 300 296 299 303 306 307 308 309 309 309 308 307 307 308 308 309 311 313 315 318 323 328 329 329 330 331 330 331 332 332 331 331 331 331 331 330 328 327 327 327 323 319 322
294 301 299 298 295 291 298 287 295 299 299 301 303 305 306 308 304 304 304 304 305 306 309 313 316 319 322 326 327 327 326 325 328 329 331 331 332 332 332 330 330 329 329 326 326 327 324 322 318
295 300 299 297 294 292 294 289 292 297 296 299 302 304 306 301 301 301 302 302 302 304 306 308 311 313 320 326 327 327 325 327 328 328 327 329 330 330 330 330 329 327 326 326 326 324 322 322 319
301 297 297 297 294 285 290 289 289 294 296 298 300 301 300 300 300 300 300 300 300 301 302 304 305 306 306 307 308 312 317 321 319 321 322 324 326 327 327 327 327 327 326 325 324 325 323 321 320
299 293 285 284 283 283 291 289 292 296 299 300 301 299 298 298 298 298 297 296 296 296 298 299 300 300 302 302 303 305 307 307 306 308 309 309 311 311 310 313 317 324 326 326 326 325 323 322 321
295 293 285 278 280 284 289 285 291 299 299 299 298 298 296 296 296 295 294 294 293 294 295 296 296 296 298 298 298 300 301 301 300 300 301 301 301 301 303 305 308 310 315 321 324 324 323 322 321
293 289 296 287 284 283 288 291 295 297 295 295 294 294 294 293 293 292 293 292 292 291 291 292 293 293 295 295 295 296 296 296 295 295 296 296 296 296 298 299 300 302 304 307 310 316 319 323 324
295 298 287 286 281 279 284 286 287 292 293 293 292 292 292 292 291 291 291 291 290 290 290 290 291 291 292 293 292 293 293 292 292 292 291 291 292 293 294 295 297 298 298 299 301 305 307 309 312
292 290 291 290 288 280 279 284 294 295 296 294 294 293 292 291 290 290 290 291 290 288 288 288 289 289 290 290 289 290 290 288 288 288 288 288 289 290 291 292 294 295 295 296 296 298 301 302 304
296 292 292 285 282 286 285 285 295 297 297 295 293 292 292 291 289 289 289 289 290 286 286 286 286 286 288 287 287 287 286 286 285 285 285 286 286 287 287 289 291 292 292 293 293 295 294 294 295
Wind_Speed
17 9 2 3 3 1 5 5 1 4 2 2 2 2 4 4 5 5 3 7 6 11 10 12 10 11 10 8 7 7 5 3 10 11 9 9 9 9 9 10 10 7 7 8 9 7 7 6 8
12 5 2 0 1 4 6 3 4 4 6 4 2 1 1 5 2 3 6 5 9 10 10 11 9 10 7 6 6 6 4 5 7 7 10 12 8 7 8 7 6 7 6 7 7 6 9 11 12
6 4 3 2 1 5 6 3 5 4 4 2 1 2 2 4 2 2 3 8 10 10 10 10 9 8 8 7 6 6 5 4 4 5 9 11 10 9 10 8 6 6 6 3 5 5 8 10 8
5 1 3 2 9 5 4 5 6 5 2 1 1 2 3 3 2 1 6 10 11 10 9 11 9 10 9 8 7 6 6 4 4 7 5 10 11 9 7 7 6 4 6 5 3 3 6 7 6
2 1 2 5 5 3 3 4 3 3 1 3 2 4 3 2 2 3 8 10 11 10 9 10 8 9 10 10 8 6 6 4 1 1 5 10 10 9 5 6 6 5 4 4 3 2 2 3 4
1 2 3 4 6 3 3 1 2 2 1 2 1 1 4 3 3 4 7 9 9 10 9 8 8 8 8 8 9 8 7 6 4 6 6 6 9 11 8 6 5 5 5 4 3 2 1 1 2
3 3 3 3 5 5 3 2 2 2 3 2 2 2 4 3 4 5 7 7 7 7 8 8 9 9 7 8 7 7 7 8 8 8 3 7 12 10 8 7 7 8 7 6 5 4 3 2 1
2 2 3 1 4 4 3 3 2 2 4 2 1 2 4 5 5 7 7 7 5 6 8 8 8 8 9 9 7 7 7 7 8 9 5 2 7 5 6 5 4 7 9 8 7 6 5 4 2
2 3 3 3 4 3 2 3 1 2 2 2 2 2 4 5 6 7 6 6 6 6 7 8 8 9 8 8 8 8 7 6 6 6 7 7 7 8 8 6 3 9 9 11 8 7 6 4 3
2 3 3 1 0 1 2 2 1 3 1 3 3 2 2 4 6 7 7 8 9 10 9 9 10 10 9 7 8 10 9 8 9 9 10 9 9 8 6 4 5 6 8 10 11 10 7 6 6
1 4 2 3 1 1 2 2 1 2 3 2 2 4 2 1 5 7 9 9 10 11 9 11 11 11 11 8 7 5 5 6 7 11 10 9 7 7 7 6 6 8 7 6 8 7 8 8 6
5 3 1 2 0 3 3 1 3 4 2 4 1 3 2 2 4 7 8 8 8 10 11 12 13 11 11 8 8 8 7 7 7 9 11 8 7 8 8 7 8 7 7 9 8 6 9 10 9
6 5 3 1 3 4 2 6 4 6 6 4 4 5 3 4 4 6 8 9 10 13 13 13 13 13 12 12 9 9 9 9 9 9 11 9 9 8 8 8 8 8 8 8 9 9 8 9 10
4 5 3 3 5 4 5 8 2 3 2 3 4 4 3 4 4 6 6 10 11 13 14 13 15 15 14 12 13 10 9 10 10 10 10 13 10 9 9 9 9 9 9 9 9 9 9 8 9
4 6 4 8 5 4 2 12 10 10 6 10 8 6 4 5 7 9 10 11 11 12 12 14 15 16 17 16 14 11 10 10 10 10 13 13 13 12 11 9 9 9 9 11 9 10 10 9 10
7 5 12 6 7 4 6 19 6 4 7 8 5 5 5 9 13 15 14 15 14 14 14 13 12 15 18 17 13 11 11 10 9 9 10 14 15 14 12 10 10 10 9 9 10 9 9 9 10
9 11 11 10 6 3 12 15 3 4 4 6 8 11 11 14 19 19 18 15 15 16 16 15 13 16 16 15 13 14 14 12 10 10 10 13 14 15 13 11 11 11 9 10 10 10 11 10 10
13 15 13 13 6 7 13 17 16 14 15 15 15 14 15 18 24 21 18 15 14 13 13 14 12 15 13 11 11 10 9 11 10 9 9 14 12 15 13 12 12 11 10 10 10 11 9 9 8
10 14 17 11 4 5 17 19 19 16 14 14 16 17 18 22 23 18 14 14 14 13 13 14 14 14 11 10 10 10 11 8 9 9 12 15 14 14 13 11 11 11 12 12 11 10 13 10 10
17 16 15 7 4 5 16 23 18 17 18 18 18 18 21 21 17 14 13 15 14 14 14 14 13 13 11 10 8 8 7 9 9 9 11 12 14 14 13 13 12 13 10 14 14 12 9 9 7
20 21 16 15 4 8 12 26 19 14 14 15 15 19 19 18 15 13 12 11 11 11 11 11 11 11 10 11 8 7 7 6 6 7 7 9 11 13 12 14 12 11 10 10 13 13 12 9 8
18 11 10 10 5 10 1 14 13 14 16 13 16 15 15 12 5 6 9 11 12 12 11 11 8 7 6 8 8 10 7 7 5 5 5 6 9 11 12 12 12 11 9 11 11 8 10 10 9
12 7 9 6 7 7 16 11 2 9 7 15 16 10 6 2 4 6 8 9 11 11 11 11 11 12 11 4 5 5 6 4 4 4 6 6 6 7 8 8 9 8 7 9 10 9 10 9 9
8 7 6 7 8 15 18 16 12 13 10 4 4 4 5 6 7 8 8 8 11 11 12 12 14 15 14 13 13 11 9 5 5 6 4 4 3 3 5 7 8 9 8 9 9 10 11 9 10
13 11 4 7 8 11 2 14 17 4 6 10 11 2 7 8 8 7 8 9 11 13 13 12 14 16 15 16 16 14 13 12 12 9 7 8 6 7 9 9 9 6 7 10 10 9 9 10 9
18 15 7 10 11 9 3 13 9 4 2 4 1 8 8 7 8 9 9 9 10 12 13 13 14 15 15 15 16 14 14 10 10 11 9 8 7 8 11 11 10 12 13 11 9 7 6 7 8
11 18 15 7 3 2 8 10 9 11 5 6 9 10 9 8 8 9 8 8 9 10 12 12 13 14 14 14 13 14 13 14 11 12 10 8 9 9 11 11 11 11 12 12 13 8 8 8 11
9 11 5 6 9 8 12 15 13 7 8 9 12 13 12 10 10 9 8 8 8 9 10 12 12 13 13 13 13 12 12 13 12 11 12 11 10 12 12 12 13 12 11 12 12 10 11 11 8
12 12 8 5 8 8 10 12 7 13 10 13 14 12 12 11 11 10 8 7 8 8 8 10 11 12 11 12 12 12 12 12 11 11 11 13 12 13 13 13 12 12 12 13 12 12 12 13 13
20 20 21 9 9 6 11 18 7 7 7 10 11 12 12 12 11 9 7 6 6 7 8 9 9 10 10 11 10 11 12 11 11 11 12 12 12 12 12 12 12 13 14 15 14 14 15 16 15
Wind_Direction
323 334 285 237 216 128 93 90 30 116 137 42 63 284 358 9 349 26 61 149 147 147 149 162 149 134 132 134 141 146 176 150 122 127 130 124 121 131 133 124 115 116 131 124 105 89 63 50 124
325 319 232 79 231 140 87 70 111 51 93 94 116 189 230 65 40 71 126 155 161 150 152 152 135 119 124 138 143 153 156 147 152 172 157 133 135 141 137 128 133 118 113 122 110 83 65 40 132
324 327 310 45 24 89 98 85 98 102 128 1 260 340 16 47 94 113 74 147 156 153 154 133 133 125 145 148 155 159 150 186 195 160 159 146 145 157 143 151 140 139 133 138 114 74 49 44 114
334 206 127 67 97 72 62 114 119 135 156 188 346 71 134 30 29 40 137 154 160 153 159 134 143 150 155 153 156 167 148 196 310 174 154 163 150 163 159 166 152 137 135 147 150 74 41 44 54
340 289 97 109 95 87 89 99 127 108 76 81 348 72 56 102 74 136 156 166 159 163 166 160 158 161 161 161 163 191 168 193 185 278 192 176 157 158 175 164 174 169 162 156 153 172 86 62 59
62 301 161 139 113 100 113 127 159 109 105 89 302 83 67 91 178 152 168 173 163 175 173 166 167 168 167 173 169 170 170 175 207 269 310 202 174 163 182 205 188 204 170 176 188 214 218 136 85
22 338 77 111 124 143 108 171 205 129 142 105 15 356 90 118 141 146 173 172 164 189 186 184 184 181 176 180 182 188 182 182 205 210 242 166 184 182 179 219 205 186 182 201 201 216 241 228 149
1 297 148 150 160 115 100 186 323 245 91 83 310 49 66 68 131 146 164 176 178 201 215 202 199 196 196 188 192 195 204 211 210 198 214 112 174 183 189 188 216 229 205 207 214 217 228 241 229
295 237 184 163 188 117 131 201 86 352 188 186 176 319 47 84 143 147 166 197 208 217 219 224 215 213 210 207 189 201 208 208 193 189 193 206 200 193 181 213 258 233 213 204 215 229 237 253 261
280 247 185 74 231 141 130 221 136 254 209 168 191 179 51 150 174 178 198 208 218 224 221 223 227 221 220 216 214 214 208 214 210 207 204 215 223 225 227 221 208 262 286 222 210 214 224 236 254
151 250 138 166 193 242 140 174 81 235 236 321 360 93 82 189 219 222 221 232 226 228 224 226 225 229 222 221 220 216 216 215 216 217 214 219 218 217 218 231 224 229 212 220 227 225 236 250 258
213 220 213 130 311 221 197 156 189 234 47 6 175 23 329 295 259 260 263 258 245 242 238 228 228 227 230 226 218 224 220 218 219 218 217 217 217 220 225 225 230 229 230 231 236 246 256 259 254
213 183 204 212 258 266 282 249 283 236 246 258 261 284 315 333 322 279 267 268 262 252 244 237 224 227 227 228 229 227 225 220 227 226 220 219 222 224 225 226 228 229 230 233 238 244 254 257 256
157 190 221 264 252 251 254 266 236 198 179 201 223 244 299 312 314 291 267 267 259 258 254 245 234 224 222 221 225 225 227 231 226 229 227 221 229 231 229 230 229 231 231 233 234 238 243 247 252
156 213 226 228 234 249 209 253 239 248 240 268 254 256 282 297 291 277 281 272 271 270 267 252 241 231 224 222 225 226 224 222 229 230 229 226 223 230 235 237 234 232 232 235 241 242 242 249 250
207 222 236 206 221 225 212 261 237 241 220 243 265 261 267 282 282 281 277 274 274 271 263 259 241 236 230 227 222 223 225 221 213 223 235 228 227 225 228 235 238 239 235 230 229 230 234 240 246
208 240 227 244 203 214 209 267 236 166 220 266 275 280 288 286 276 273 272 274 280 283 284 270 250 241 234 232 230 227 224 225 219 215 226 233 228 227 228 230 234 234 240 243 242 236 230 232 237
224 226 235 235 183 222 241 253 264 264 272 274 278 281 278 277 277 280 289 293 286 282 280 278 270 252 242 232 231 232 231 230 224 217 216 230 227 228 228 236 237 235 236 242 242 251 248 247 259
249 238 242 244 230 255 256 264 269 276 271 270 274 275 275 268 274 291 302 296 310 303 293 281 270 259 238 222 224 225 223 229 233 229 229 233 232 230 228 234 241 235 239 241 240 242 249 247 244
228 237 237 259 220 247 275 271 269 270 264 260 266 272 265 274 286 299 313 322 323 313 302 295 281 271 248 235 227 233 228 231 224 219 229 231 241 237 236 234 237 232 235 242 241 229 236 249 237
227 237 241 249 261 258 291 284 267 248 248 255 252 250 266 280 302 328 335 344 349 343 328 309 295 279 256 233 228 227 235 248 239 235 239 235 235 237 236 240 242 245 241 241 243 240 228 234 230
225 220 247 243 251 257 347 286 296 295 262 244 257 254 266 295 344 358 12 16 13 6 1 6 353 325 277 244 231 225 228 248 264 267 258 255 234 239 239 239 243 242 248 247 255 250 236 236 242
233 163 202 192 229 302 245 274 304 134 252 272 257 256 286 87 70 57 43 36 31 24 25 33 44 43 26 10 241 238 239 265 302 310 307 297 284 253 252 249 252 249 248 249 251 247 238 234 240
190 176 202 220 247 253 251 239 264 247 236 242 264 145 127 102 92 79 64 51 44 38 38 39 50 52 48 49 48 49 51 49 49 29 9 346 329 306 293 268 248 248 247 247 249 250 249 242 238
180 160 200 201 205 244 308 214 255 152 236 305 301 153 127 123 112 92 69 56 44 38 38 41 47 51 49 51 51 49 57 57 53 41 34 25 19 11 6 356 349 310 268 262 258 256 247 244 247
196 194 195 217 220 228 140 233 242 175 3 2 58 121 126 117 104 85 71 64 61 52 43 47 47 49 48 51 51 50 47 52 48 41 36 35 23 14 4 1 2 351 341 327 299 276 267 271 267
184 217 232 277 104 264 226 238 248 217 213 147 143 146 139 126 110 103 91 74 65 59 53 48 49 50 45 45 46 46 42 44 42 37 30 22 17 4 5 359 358 8 350 350 339 324 314 296 281
202 158 164 198 210 220 236 256 252 181 185 168 172 169 160 150 136 120 107 89 68 59 55 52 47 47 45 46 39 41 38 34 31 30 25 19 13 7 4 1 359 358 348 355 346 338 332 333 329
200 209 219 258 224 242 260 251 259 237 192 190 188 180 167 156 146 137 126 107 88 71 60 57 49 43 43 43 39 38 33 28 27 25 19 11 9 7 5 0 352 351 351 352 347 342 344 342 338
220 215 206 213 200 241 267 266 156 180 206 200 187 176 166 159 152 143 134 115 96 72 60 51 52 47 38 37 39 34 27 24 26 21 16 13 8 5 1 357 355 354 354 353 350 347 345 336 332